Location: Unspecified
(0.0000°N, 0.0000°E)
Time: 01:53:31
(UTC+00:00)

SR - Visible Passes

Search period start: 26 May 2019 00:00
Search period end: 05 June 2019 00:00
Orbit: 583 x 873 km, 66.7° (Epoch: 25 May)

Date Brightness Start Highest point End Pass type
(mag) Time Alt. Az. Time Alt. Az. Time Alt. Az.
26 May ? 20:42:01 10° NNW 20:43:26 19° NNW 20:43:26 19° NNW visible
27 May ? 19:52:45 10° N 19:55:53 32° NNE 19:55:53 32° NNE visible
28 May ? 19:04:44 10° NNE 19:08:17 18° ENE 19:08:23 18° ENE visible
28 May ? 20:45:21 10° NW 20:47:51 23° WNW 20:47:51 23° WNW visible
29 May ? 19:55:09 10° NNW 20:00:26 78° WSW 20:00:26 78° WSW visible
30 May ? 19:05:58 10° N 19:10:55 41° ENE 19:13:06 29° ESE visible
30 May ? 20:50:10 10° W 20:52:35 14° WSW 20:52:35 14° WSW visible
31 May ? 18:18:07 10° NNE 18:21:27 17° ENE 18:24:55 10° ESE visible
31 May ? 19:58:24 10° NW 20:03:13 34° WSW 20:05:18 26° SSW visible
01 Jun ? 19:08:17 10° NNW 19:13:37 85° WSW 19:18:03 17° SSE visible
02 Jun ? 18:19:12 10° N 18:24:06 38° ENE 18:29:21 10° SE visible
02 Jun ? 20:02:58 10° WNW 20:06:03 15° WSW 20:09:15 10° SSW visible
03 Jun ? 19:11:26 10° NW 19:16:22 37° WSW 19:21:37 10° S visible
04 Jun ? 18:21:26 10° NNW 18:26:47 89° ENE 18:32:32 10° SSE visible
